Back to catalog

STARLINK-5666

AliveCommunicationsVLEO
NORAD 55349·PAYLOAD·🇺🇸 United States

Launched Jan 26, 2023 from Cape Canaveral Space Force Station

Loading…

Next Passes (next 24 hours)

TLE

FreshSource: CelesTrak SupGP

Epoch: Sep 14, 2026, 22:10 UTC

1 55349C 23013U   26257.92409722 -.00028136  00000+0 -10191-2 0  2574
2 55349  43.0000 314.5804 0001562 262.8533 179.9075 15.27591715    15

Track STARLINK-5666 in real time with AllMySat

Download on the App Store